Waarnemingen

Advertentie
Mijn weer
Aultbea, Groot Brittannië (3034): temperatuur & dauwpunt: 05.12.2018 16:00:00 - 11.12.2018 16:00:00 (GMT)Aultbea, Groot Brittannië (3034): temperatuur -20cm & temperatuur -100cm: 05.12.2018 16:00:00 - 11.12.2018 16:00:00 (GMT)Aultbea, Groot Brittannië (3034): windsnelheid & windstoten: 05.12.2018 16:00:00 - 11.12.2018 16:00:00 (GMT)Aultbea, Groot Brittannië (3034): windrichting: 05.12.2018 16:00:00 - 11.12.2018 16:00:00 (GMT)Aultbea, Groot Brittannië (3034): luchtdruk: 05.12.2018 16:00:00 - 11.12.2018 16:00:00 (GMT)Aultbea, Groot Brittannië (3034): zicht: 05.12.2018 16:00:00 - 11.12.2018 16:00:00 (GMT)Aultbea, Groot Brittannië (3034): neerslag: 05.12.2018 16:00:00 - 11.12.2018 16:00:00 (GMT)
Datum & Tijd tt [°C] td [°C] tt -20cm [°C] tt -100cm [°C] ff [km/u] ff [kn] fx [km/u] fx [kn] dd ppp [hPa] vv [km] rr [mm]
11.12.2018 16:00:00 8,6 5,3 - - 5 3 - - Z 1014,9 50 0,0
11.12.2018 15:00:00 8,9 5,6 - - 8 4 - - O 1015,2 45 0,0
11.12.2018 14:00:00 9,2 5,7 - - 13 7 - - ZZO 1015,5 50 0,0
11.12.2018 13:00:00 8,7 5,5 - - 13 7 - - ZZO 1015,6 40 0,0
11.12.2018 12:00:00 7,9 4,9 - - 5 3 - - O 1016,0 50 0,0
11.12.2018 11:00:00 7,1 4,2 - - 9 5 - - OZO 1016,7 50 0,0
11.12.2018 10:00:00 6,1 3,9 - - 8 4 - - ZO 1016,5 40 0,0
11.12.2018 09:00:00 4,6 3,2 5,7 7,4 4 2 - - O 1017,0 45 0,0
11.12.2018 08:00:00 5,1 3,4 - - 5 3 - - OZO 1017,2 50 0,0
11.12.2018 07:00:00 4,6 2,8 - - 5 3 - - OZO 1017,6 50 0,0
11.12.2018 06:00:00 5,5 3,0 - - 9 5 - - ZO 1018,1 50 0,0
11.12.2018 05:00:00 6,8 3,8 - - 11 6 - - ZZO 1018,4 50 0,0
11.12.2018 04:00:00 7,2 3,8 - - 16 9 - - ZZO 1019,0 50 0,0
11.12.2018 03:00:00 6,6 3,8 - - 13 7 - - ZZO 1019,4 50 0,0
11.12.2018 02:00:00 6,5 3,3 - - 15 8 - - ZZO 1019,7 45 0,0
11.12.2018 01:00:00 6,3 3,2 - - 21 11 - - ZO 1020,1 50 0,0
11.12.2018 00:00:00 6,1 2,6 - - 21 11 - - ZZO 1020,7 50 0,0
10.12.2018 23:00:00 5,8 2,6 - - 15 8 - - ZZO 1021,3 45 0,0
10.12.2018 22:00:00 5,5 2,4 - - 11 6 - - ZZO 1022,0 50 0,0
10.12.2018 21:00:00 5,4 2,7 - - 11 6 - - Z 1022,3 50 0,0
10.12.2018 20:00:00 5,1 2,3 - - 11 6 - - ZO 1022,5 50 0,0
10.12.2018 19:00:00 4,8 2,3 - - 8 4 - - ZZO 1023,1 50 0,0
10.12.2018 18:00:00 4,9 1,4 - - 11 6 - - ZO 1023,7 50 0,0
10.12.2018 17:00:00 4,4 1,9 - - 11 6 - - Z 1024,0 50 0,0
10.12.2018 16:00:00 4,1 2,0 - - 8 4 - - OZO 1024,5 50 0,0
10.12.2018 15:00:00 4,2 2,2 - - 11 6 - - ZZO 1024,4 45 0,0
10.12.2018 14:00:00 4,1 2,2 - - 8 4 - - ZZO 1025,4 50 0,0
10.12.2018 13:00:00 4,1 2,4 - - 9 5 - - ZZO 1025,6 50 0,0
10.12.2018 12:00:00 4,4 2,1 - - 11 6 - - ZO 1025,7 45 0,0
10.12.2018 11:00:00 3,0 0,9 - - 4 2 - - O 1025,3 50 0,0
10.12.2018 10:00:00 1,7 0,6 - - 4 2 - - O 1024,8 45 0,0
10.12.2018 09:00:00 1,9 0,6 5,9 7,4 8 4 - - O 1024,6 45 0,0
10.12.2018 08:00:00 2,4 0,2 - - 4 2 - - OZO 1024,3 45 0,0
10.12.2018 07:00:00 3,9 1,0 - - 4 2 - - ONO 1024,0 45 0,0
10.12.2018 06:00:00 4,5 0,6 - - 8 4 - - N 1023,8 45 0,0
10.12.2018 05:00:00 4,6 0,1 - - 8 4 - - NNW 1022,8 45 0,0
10.12.2018 04:00:00 3,6 0,6 - - 9 5 - - N 1022,4 50 0,0
10.12.2018 03:00:00 5,9 1,0 - - 9 5 - - NW 1022,2 45 0,0
10.12.2018 02:00:00 5,3 0,3 - - 8 4 - - NW 1021,6 40 0,0
10.12.2018 01:00:00 5,3 1,2 - - 8 4 - - NW 1020,8 40 0,0
10.12.2018 00:00:00 5,8 1,7 - - 9 5 - - NNW 1020,0 35 0,0
09.12.2018 23:00:00 5,1 2,3 - - 9 5 - - WNW 1019,4 40 0,0
09.12.2018 22:00:00 5,9 2,8 - - 13 7 - - WNW 1018,8 35 0,0
09.12.2018 21:00:00 5,5 2,4 - - 9 5 - - NW 1018,1 45 0,0
09.12.2018 20:00:00 5,6 2,2 - - 9 5 - - NW 1017,3 35 0,0
09.12.2018 19:00:00 5,7 2,2 - - 11 6 - - WNW 1016,6 28 0,0
09.12.2018 18:00:00 4,8 2,6 - - 8 4 - - NNW 1015,7 40 0,0
09.12.2018 17:00:00 5,4 3,2 - - 8 4 - - N 1014,8 35 0,4
09.12.2018 16:00:00 4,5 3,1 - - 11 6 - - WZW 1013,8 9 1,4
09.12.2018 15:00:00 5,3 3,3 - - 9 5 - - ZW 1012,8 23 0,0
09.12.2018 14:00:00 5,0 2,8 - - 9 5 - - ZZW 1011,8 24 0,2
09.12.2018 13:00:00 4,8 3,3 - - 5 3 - - WZW 1011,1 10 0,6
09.12.2018 12:00:00 4,5 3,4 - - 4 2 - - NO 1010,5 14 0,2
09.12.2018 11:00:00 4,6 3,1 - - 8 4 - - NNO 1009,7 13 0,6
09.12.2018 10:00:00 4,7 2,6 - - 8 4 - - NW 1008,5 9 0,4
09.12.2018 09:00:00 4,3 3,1 6,4 7,4 2 1 - - WNW 1006,6 14 0,2
09.12.2018 08:00:00 4,5 3,0 - - 15 8 - - NO 1005,3 12 1,6
09.12.2018 07:00:00 4,9 3,4 - - 18 10 - - N 1003,7 9 0,2
09.12.2018 06:00:00 5,6 2,4 - - 13 7 - - N 1001,7 40 0,0
09.12.2018 05:00:00 6,1 2,3 - - 11 6 - - N 1000,3 29 0,2
09.12.2018 04:00:00 4,9 2,3 - - 8 4 - - NO 998,7 50 0,0
09.12.2018 03:00:00 6,2 0,4 - - 15 8 - - N 997,3 45 0,0
09.12.2018 02:00:00 5,4 3,4 - - 9 5 - - NO 995,9 25 0,0
09.12.2018 01:00:00 5,4 4,0 - - 13 7 - - NO 994,4 19 0,4
09.12.2018 00:00:00 5,6 3,8 - - 13 7 - - N 993,2 19 0,2
08.12.2018 23:00:00 5,4 3,6 - - 11 6 - - NO 991,9 21 0,0
08.12.2018 22:00:00 5,8 4,7 - - 8 4 - - NO 991,0 23 0,2
08.12.2018 21:00:00 5,7 4,1 - - 11 6 - - NO 990,2 20 0,0
08.12.2018 20:00:00 6,2 4,8 - - 9 5 - - N 989,4 10 0,2
08.12.2018 19:00:00 5,7 4,7 - - 4 2 - - NNO 989,0 16 0,6
08.12.2018 18:00:00 5,9 5,1 - - 4 2 - - NNO 988,4 12 0,8
08.12.2018 17:00:00 6,2 5,6 - - 2 1 - - N 988,2 6 0,8
08.12.2018 16:00:00 6,6 5,9 - - 9 5 - - NNO 987,8 10 1,4
08.12.2018 15:00:00 7,0 5,5 - - 9 5 - - N 987,6 11 0,0
08.12.2018 14:00:00 8,3 5,9 - - 16 9 - - WNW 987,6 30 0,0
08.12.2018 13:00:00 7,8 6,4 - - 15 8 - - WNW 988,0 22 0,2
08.12.2018 12:00:00 8,6 5,9 - - 18 10 - - W 988,5 20 0,0
08.12.2018 11:00:00 8,5 6,0 - - 26 14 - - W 988,6 23 0,0
08.12.2018 10:00:00 8,4 6,1 - - 24 13 - - W 988,7 18 0,0
08.12.2018 09:00:00 8,6 6,1 6,4 7,4 29 16 48 26 W 988,7 19 0,0
08.12.2018 08:00:00 8,7 6,4 - - 28 15 48 26 W 988,3 13 0,0
08.12.2018 07:00:00 8,8 6,9 - - 29 16 46 25 W 987,8 11 0,0
08.12.2018 06:00:00 9,1 6,7 - - 28 15 54 29 WNW 987,1 16 0,0
08.12.2018 05:00:00 8,7 6,7 - - 34 18 50 27 WNW 985,9 15 0,4
08.12.2018 04:00:00 9,0 6,7 - - 37 20 59 32 WNW 984,5 14 0,0
08.12.2018 03:00:00 8,9 6,7 - - 39 21 61 33 W 983,5 9 0,0
08.12.2018 02:00:00 8,9 6,4 - - 35 19 59 32 W 982,4 14 0,2
08.12.2018 01:00:00 9,1 6,5 - - 37 20 55 30 W 981,3 11 0,0
08.12.2018 00:00:00 8,3 5,5 - - 34 18 57 31 W 980,0 17 0,0
07.12.2018 23:00:00 8,6 5,9 - - 39 21 68 37 W 978,7 16 0,0
07.12.2018 22:00:00 9,1 5,7 - - 39 21 61 33 W 977,6 12 0,0
07.12.2018 21:00:00 8,9 5,6 - - 37 20 63 34 W 976,7 14 0,0
07.12.2018 20:00:00 9,1 5,5 - - 42 23 68 37 W 975,9 18 0,2
07.12.2018 19:00:00 8,7 6,8 - - 52 28 78 42 W 974,6 5 0,8
07.12.2018 18:00:00 8,9 6,8 - - 44 24 76 41 WZW 973,8 8 0,2
07.12.2018 17:00:00 8,5 7,3 - - 46 25 89 48 WZW 973,4 8 2,4
07.12.2018 16:00:00 7,8 6,5 - - 50 27 78 42 WZW 973,5 2,9 1,6
07.12.2018 15:00:00 7,6 5,7 - - 50 27 91 49 ZW 974,2 6 2,0
07.12.2018 14:00:00 7,3 5,3 - - 50 27 87 47 ZW 974,9 6 2,2
07.12.2018 13:00:00 7,2 5,2 - - 57 31 87 47 ZW 975,2 6 2,8
07.12.2018 12:00:00 7,3 4,8 - - 63 34 91 49 ZW 976,4 3,0 1,4
07.12.2018 11:00:00 7,6 5,2 - - 61 33 94 51 ZZW 976,7 5 0,8
07.12.2018 10:00:00 7,9 5,3 - - 63 34 94 51 ZZW 976,9 7 0,6
07.12.2018 09:00:00 7,8 5,1 6,0 7,4 61 33 83 45 Z 977,5 9 0,2
07.12.2018 08:00:00 7,7 5,5 - - 50 27 80 43 Z 978,6 16 0,2
07.12.2018 07:00:00 8,4 5,0 - - 48 26 89 48 Z 979,5 15 0,0
07.12.2018 06:00:00 9,2 5,0 - - 52 28 80 43 Z 981,2 10 0,0
07.12.2018 05:00:00 9,7 6,4 - - 54 29 74 40 Z 982,1 10 0,0
07.12.2018 04:00:00 10,0 5,9 - - 26 14 - - ZZO 983,2 45 0,0
07.12.2018 03:00:00 8,9 5,4 - - 22 12 - - OZO 985,8 19 0,0
07.12.2018 02:00:00 8,8 4,2 - - 16 9 - - OZO 989,1 21 0,0
07.12.2018 01:00:00 9,1 4,7 - - 11 6 - - O 991,4 20 0,0
07.12.2018 00:00:00 9,7 5,8 - - 18 10 57 31 Z 994,2 17 0,0
06.12.2018 23:00:00 9,5 6,7 - - 22 12 - - Z 995,6 14 0,0
06.12.2018 22:00:00 9,6 6,9 - - 24 13 - - ZZW 997,0 14 0,0
06.12.2018 21:00:00 9,4 7,0 - - 24 13 48 26 ZZW 998,3 12 0,0
06.12.2018 20:00:00 9,5 6,4 - - 34 18 - - ZZW 999,0 12 0,0
06.12.2018 19:00:00 9,4 6,2 - - 24 13 - - ZZW 999,7 13 0,0
06.12.2018 18:00:00 9,9 5,2 - - 21 11 - - ZW 999,5 21 0,0
06.12.2018 17:00:00 10,1 6,2 - - 22 12 48 26 ZW 1000,0 16 0,0
06.12.2018 16:00:00 9,7 6,2 - - 24 13 46 25 ZW 999,3 15 0,0
06.12.2018 15:00:00 10,1 6,5 - - 26 14 - - ZW 998,7 15 0,0
06.12.2018 14:00:00 9,8 6,7 - - 34 18 48 26 ZZW 997,7 16 0,0
06.12.2018 13:00:00 10,2 7,4 - - 31 17 57 31 ZW 997,6 11 0,4
06.12.2018 12:00:00 10,8 8,5 - - 24 13 - - ZW 996,3 14 0,0
06.12.2018 11:00:00 11,0 9,3 - - 34 18 54 29 WZW 995,8 10 0,0
06.12.2018 10:00:00 10,8 10,2 - - 42 23 63 34 ZZW 994,7 10 0,6
06.12.2018 09:00:00 10,5 9,1 5,0 7,5 48 26 67 36 Z 994,3 5 0,2
06.12.2018 08:00:00 10,2 8,4 - - 41 22 57 31 Z 994,5 15 1,0
06.12.2018 07:00:00 7,7 6,4 - - 21 11 - - ZZO 995,6 7 1,4
06.12.2018 06:00:00 6,7 5,5 - - 9 5 - - ZZO 997,3 9 1,2
06.12.2018 05:00:00 6,6 4,5 - - 8 4 - - ZO 998,8 50 0,0
06.12.2018 04:00:00 6,0 3,9 - - 9 5 - - ZZO 1000,3 50 0,0
06.12.2018 03:00:00 5,9 3,3 - - 11 6 - - ZZO 1002,6 50 0,0
06.12.2018 02:00:00 5,7 3,1 - - 15 8 - - ZZO 1004,4 50 0,0
06.12.2018 01:00:00 4,9 2,4 - - 5 3 - - OZO 1004,3 45 0,0
06.12.2018 00:00:00 4,5 2,5 - - 11 6 - - ZZO 1006,4 50 0,0
05.12.2018 23:00:00 4,0 2,1 - - 8 4 - - OZO 1006,6 50 0,0
05.12.2018 22:00:00 3,4 1,0 - - 8 4 - - ZO 1006,7 50 0,0
05.12.2018 21:00:00 3,5 1,3 - - 9 5 - - ZO 1007,3 45 0,0
05.12.2018 20:00:00 2,8 0,1 - - 5 3 - - NO 1007,3 50 0,0
05.12.2018 19:00:00 2,2 -0,4 - - 9 5 - - OZO 1008,1 50 0,0
05.12.2018 18:00:00 0,8 -2,4 - - 5 3 - - O 1008,6 50 0,0
05.12.2018 17:00:00 1,8 -1,1 - - 4 2 - - OZO 1009,8 50 0,0
05.12.2018 16:00:00 2,6 -1,3 - - 8 4 - - ONO 1009,5 50 0,0

tt = temperatuur
td = dauwpunt
tt -20cm = temperatuur -20cm
tt -100cm = temperatuur -100cm
ff = windsnelheid
fx = windstoten
dd = windrichting
ppp = luchtdruk
vv = zicht
rr = neerslag

Weerstations in de omgeving